Portada
METAR-TAF:

METAR-TAF

Aeropuertos :

Puerto Carreño, Colombia

Aeropuerto Germán Olano

latitud: 06-10N, longitud: 067-30W, altitud: 55 m

Observación

El informe se hizo hace 1 hora y 10 minutos, a las 22:00 UTC
Viento 4 kt del este-sureste
Temperatura 33°C
Humedad 53%
Presión 1006 hPa
Visibilidad 10 km o más
Cielo nuboso a una altura de 7000 ft

METAR: SKPC 212200Z 12004KT 9999 EW020 BKN070 33/22 A2972

Hora: 18:10 (23:10 UTC)


TAF: falta

Observaciones y pronósticos meteorológicos de más de 4000 aeropuertos (mensajes METAR y TAF).

Los puntos amarillos y rojos representan las estaciones disponibles.

Ponga el ratón en el punto deseado para ver el nombre de la estación.

Haga clic para ver las observaciones y los pronósticos meteorológicos.

Para cambiar el mapa : haga clic en los botones verdes con una cruz de color negro para hacer un zoom, en el botón verde con un guión para alejar o en las flechas verdes para mapas adyacentes.


METAR-TAF: